YAOGAN-31 F

Satellite information

Favourite Embed

Satellite Type and Status

PAYLOADIN ORBIT

Key statistics

Satellite YAOGAN-31 F at a glance.

Uptime

1559

Days in orbit

Revolutions

≈ 13.5

Per day

Orbit

LEO

Low Earth Orbit

Inclination

63.4

Latest

Satellite identification and parameters

Extended collection of information and parameters for YAOGAN-31 F.

Object identification

Identified? True

Debris? False

Object name: YAOGAN-31 F

International designator: 2021-007E

Object number (NORAD): 47536

Object ID (CCSDS): 47536

Country: PEOPLES REPUBLIC OF CHINA (PRC)

Current information (Y/N): Y

RCS size: LARGE

Orbital parameters

Period: 107.031 minutes

Inclination: 63.4025 deg

SMA: 7467.342 km

Apoapsis: 1193.782 km

Periapsis: 984.632 km

RAAN: 106.035 deg

Eccentricy: 0.0140043

Argument of periapsis: 358.9849 deg

Mean anomaly: 1.0873 deg

Mean motion: 13.4540706 rev/day

Mean motion (dot): -0.00000017 rev/day2

B* drag term: 0.00011648 1/REarth

Two-line elements (TLE)

Creation date: May 7, 2025, 3:14 a.m.

Reference frame: TEME

Reference center: EARTH

Epoch: May 6, 2025, 10:16 p.m. UTC

TLE line 0: 0 YAOGAN-31 F

TLE line 1: 1 47536U 21007E 25126.92809302 -.00000017 00000-0 11648-3 0 9996

TLE line 2: 2 47536 63.4025 106.0350 0140043 358.9849 1.0873 13.45407060209550

Live tracking on map

Real-time ground track for satellite YAOGAN-31 F.

In-orbit conjunctions

There are no conjunctions computed for YAOGAN-31 F, at the moment. Check back to stay up to date, as we update our databases every day.

Go to all conjunctions

Associated space launch

YAOGAN-31 F was lifted into orbit during the mission ‘Long March 4C | Yaogan-31-02’, on board a Long March 4C space rocket.

The launch took place on Jan. 29, 2021, 4:47 a.m. from Launch Area 4 (SLS-2 / 603).

For more information about the launch, click the button.

Launch to space Long March 4C | Yaogan-31-02
Long March 4C | Yaogan-31-02

Agency: N/A

Status: Launch Successful

Launch date: Jan. 29, 2021, 4:47 a.m. UTC

Rocket: Long March 4C

Launch pad: Launch Area 4 (SLS-2 / 603)

Location: Jiuquan Satellite Launch Center, People's Republic of China

...

Latest news about this satellite

News about space launch
Long March 4C lofts three Yaogan Weixing-31 satellites

China launched its second orbital mission in 2021, orbiting three new satellites from the Jiuquan Satellite Launch Center on Friday. The launch took place from Launch Pad 94 of the LC43 launch complex using the Long March-4C (Y31) rocket. The Yaogan Weix...

News about space launch
China launches military spy satellite trio into orbit

China launched three Yaogan military satellites Friday on a Long March 4C rocket, adding to a fleet of spacecraft independent analysts believe are designed to spy on naval forces.


Newsletter sign-up

Weekly statistics, charts and insights to help you stay on top of the space industry.